User: anonymous   Login
Location: Aragüita
(10.0436°N, 67.8028°W)
Time: 15:12:04
(UTC+00:00)
Language:

Meteor 1-23 Rocket - Orbit

View from above orbital plane
View from above orbital plane
View from above satellite
View from above satellite

Ground track
Ground track

The orbit data is extracted from the following two-line orbital elements,

1 08520U 75124B   24165.69150737  .00000236  00000-0  12810-3 0  9996
2 08520  81.2867 219.2160 0026460 317.2307  42.6804 14.09209103490489
Epoch (UTC): 13 June 2024 16:35:46
Eccentricity: 0.0026460
inclination: 81.2867°
perigee height: 843 km
apogee height: 881 km
right ascension of ascending node: 219.2160°
argument of perigee: 317.2307°
revolutions per day: 14.09209103
mean anomaly at epoch: 42.6804°
orbit number at epoch: 49048

The dashed part of the orbit path shows where the satellite is in the earth's shadow,  

DLR